Year,Month,Day,Hour,Minute,Value (Times are PST for windgust in km/hr)
2006,01,31,00,00,4.80
2006,01,31,00,01,6.40
2006,01,31,00,02,6.40
2006,01,31,00,03,6.40
2006,01,31,00,04,4.80
2006,01,31,00,05,8.10
2006,01,31,00,06,8.10
2006,01,31,00,07,8.10
2006,01,31,00,08,6.40
2006,01,31,00,09,4.80
2006,01,31,00,10,9.60
2006,01,31,00,11,6.40
2006,01,31,00,12,8.10
2006,01,31,00,13,8.10
2006,01,31,00,14,4.80
2006,01,31,00,15,6.40
2006,01,31,00,16,3.20
2006,01,31,00,17,0.00
2006,01,31,00,18,4.80
2006,01,31,00,19,8.10
2006,01,31,00,20,4.80
2006,01,31,00,21,4.80
2006,01,31,00,22,3.20
2006,01,31,00,23,3.20
2006,01,31,00,24,4.80
2006,01,31,00,25,4.80
2006,01,31,00,26,4.80
2006,01,31,00,27,4.80
2006,01,31,00,28,6.40
2006,01,31,00,29,8.10
2006,01,31,00,30,4.80
2006,01,31,00,31,4.80
2006,01,31,00,32,6.40
2006,01,31,00,33,6.40
2006,01,31,00,34,16.10
2006,01,31,00,35,11.30
2006,01,31,00,36,6.40
2006,01,31,00,37,6.40
2006,01,31,00,38,8.10
2006,01,31,00,39,6.40
2006,01,31,00,40,6.40
2006,01,31,00,41,6.40
2006,01,31,00,42,8.10
2006,01,31,00,43,6.40
2006,01,31,00,44,6.40
2006,01,31,00,45,8.10
2006,01,31,00,46,9.60
2006,01,31,00,47,4.80
2006,01,31,00,48,11.30
2006,01,31,00,49,6.40
2006,01,31,00,50,3.20
2006,01,31,00,51,8.10
2006,01,31,00,52,4.80
2006,01,31,00,53,19.30
2006,01,31,00,54,14.50
2006,01,31,00,55,14.50
2006,01,31,00,56,9.60
2006,01,31,00,57,14.50
2006,01,31,00,58,12.90
2006,01,31,00,59,4.80
2006,01,31,01,00,6.40
2006,01,31,01,01,8.10
2006,01,31,01,02,4.80
2006,01,31,01,03,8.10
2006,01,31,01,04,6.40
2006,01,31,01,05,6.40
2006,01,31,01,06,8.10
2006,01,31,01,07,9.60
2006,01,31,01,08,8.10
2006,01,31,01,09,9.60
2006,01,31,01,10,11.30
2006,01,31,01,11,17.70
2006,01,31,01,12,9.60
2006,01,31,01,13,9.60
2006,01,31,01,14,17.70
2006,01,31,01,15,6.40
2006,01,31,01,16,14.50
2006,01,31,01,17,11.30
2006,01,31,01,18,11.30
2006,01,31,01,19,14.50
2006,01,31,01,20,12.90
2006,01,31,01,21,16.10
2006,01,31,01,22,16.10
2006,01,31,01,23,14.50
2006,01,31,01,24,14.50
2006,01,31,01,25,24.20
2006,01,31,01,26,19.30
2006,01,31,01,27,14.50
2006,01,31,01,28,14.50
2006,01,31,01,29,17.70
2006,01,31,01,30,11.30
2006,01,31,01,31,20.90
2006,01,31,01,32,17.70
2006,01,31,01,33,17.70
2006,01,31,01,34,16.10
2006,01,31,01,35,17.70
2006,01,31,01,36,17.70
2006,01,31,01,37,17.70
2006,01,31,01,38,17.70
2006,01,31,01,39,16.10
2006,01,31,01,40,16.10
2006,01,31,01,41,16.10
2006,01,31,01,42,19.30
2006,01,31,01,43,16.10
2006,01,31,01,44,16.10
2006,01,31,01,45,24.20
2006,01,31,01,46,22.50
2006,01,31,01,47,14.50
2006,01,31,01,48,11.30
2006,01,31,01,49,17.70
2006,01,31,01,50,11.30
2006,01,31,01,51,11.30
2006,01,31,01,52,8.10
2006,01,31,01,53,11.30
2006,01,31,01,54,12.90
2006,01,31,01,55,11.30
2006,01,31,01,56,6.40
2006,01,31,01,57,6.40
2006,01,31,01,58,6.40
2006,01,31,01,59,8.10
2006,01,31,02,00,8.10
2006,01,31,02,01,9.60
2006,01,31,02,02,11.30
2006,01,31,02,03,9.60
2006,01,31,02,04,12.90
2006,01,31,02,05,11.30
2006,01,31,02,06,11.30
2006,01,31,02,07,11.30
2006,01,31,02,08,8.10
2006,01,31,02,09,8.10
2006,01,31,02,10,8.10
2006,01,31,02,11,9.60
2006,01,31,02,12,8.10
2006,01,31,02,13,8.10
2006,01,31,02,14,11.30
2006,01,31,02,15,11.30
2006,01,31,02,16,8.10
2006,01,31,02,17,9.60
2006,01,31,02,18,8.10
2006,01,31,02,19,8.10
2006,01,31,02,20,11.30
2006,01,31,02,21,11.30
2006,01,31,02,22,8.10
2006,01,31,02,23,6.40
2006,01,31,02,24,8.10
2006,01,31,02,25,9.60
2006,01,31,02,26,9.60
2006,01,31,02,27,8.10
2006,01,31,02,28,14.50
2006,01,31,02,29,6.40
2006,01,31,02,30,1.60
2006,01,31,02,31,4.80
2006,01,31,02,32,9.60
2006,01,31,02,33,8.10
2006,01,31,02,34,8.10
2006,01,31,02,35,8.10
2006,01,31,02,36,8.10
2006,01,31,02,37,6.40
2006,01,31,02,38,6.40
2006,01,31,02,39,8.10
2006,01,31,02,40,8.10
2006,01,31,02,41,8.10
2006,01,31,02,42,9.60
2006,01,31,02,43,12.90
2006,01,31,02,44,9.60
2006,01,31,02,45,11.30
2006,01,31,02,46,4.80
2006,01,31,02,47,4.80
2006,01,31,02,48,8.10
2006,01,31,02,49,11.30
2006,01,31,02,50,9.60
2006,01,31,02,51,8.10
2006,01,31,02,52,8.10
2006,01,31,02,53,8.10
2006,01,31,02,54,11.30
2006,01,31,02,55,11.30
2006,01,31,02,56,9.60
2006,01,31,02,57,11.30
2006,01,31,02,58,11.30
2006,01,31,02,59,9.60
2006,01,31,03,00,11.30
2006,01,31,03,01,16.10
2006,01,31,03,02,11.30
2006,01,31,03,03,14.50
2006,01,31,03,04,12.90
2006,01,31,03,05,11.30
2006,01,31,03,06,14.50
2006,01,31,03,07,16.10
2006,01,31,03,08,8.10
2006,01,31,03,09,9.60
2006,01,31,03,10,16.10
2006,01,31,03,11,16.10
2006,01,31,03,12,11.30
2006,01,31,03,13,8.10
2006,01,31,03,14,12.90
2006,01,31,03,15,11.30
2006,01,31,03,16,8.10
2006,01,31,03,17,14.50
2006,01,31,03,18,14.50
2006,01,31,03,19,11.30
2006,01,31,03,20,11.30
2006,01,31,03,21,9.60
2006,01,31,03,22,11.30
2006,01,31,03,23,11.30
2006,01,31,03,24,9.60
2006,01,31,03,25,11.30
2006,01,31,03,26,9.60
2006,01,31,03,27,8.10
2006,01,31,03,28,9.60
2006,01,31,03,29,11.30
2006,01,31,03,30,11.30
2006,01,31,03,31,6.40
2006,01,31,03,32,11.30
2006,01,31,03,33,9.60
2006,01,31,03,34,12.90
2006,01,31,03,35,9.60
2006,01,31,03,36,11.30
2006,01,31,03,37,9.60
2006,01,31,03,38,8.10
2006,01,31,03,39,8.10
2006,01,31,03,40,9.60
2006,01,31,03,41,6.40
2006,01,31,03,42,8.10
2006,01,31,03,43,6.40
2006,01,31,03,44,6.40
2006,01,31,03,45,6.40
2006,01,31,03,46,6.40
2006,01,31,03,47,8.10
2006,01,31,03,48,6.40
2006,01,31,03,49,6.40
2006,01,31,03,50,6.40
2006,01,31,03,51,4.80
2006,01,31,03,52,4.80
2006,01,31,03,53,3.20
2006,01,31,03,54,3.20
2006,01,31,03,55,3.20
2006,01,31,03,56,4.80
2006,01,31,03,57,4.80
2006,01,31,03,58,4.80
2006,01,31,03,59,4.80
2006,01,31,04,00,9.60
2006,01,31,04,01,4.80
2006,01,31,04,02,8.10
2006,01,31,04,03,6.40
2006,01,31,04,04,8.10
2006,01,31,04,05,9.60
2006,01,31,04,06,8.10
2006,01,31,04,07,6.40
2006,01,31,04,08,6.40
2006,01,31,04,09,8.10
2006,01,31,04,10,8.10
2006,01,31,04,11,8.10
2006,01,31,04,12,8.10
2006,01,31,04,13,8.10
2006,01,31,04,14,6.40
2006,01,31,04,15,6.40
2006,01,31,04,16,9.60
2006,01,31,04,17,6.40
2006,01,31,04,18,4.80
2006,01,31,04,19,8.10
2006,01,31,04,20,8.10
2006,01,31,04,21,8.10
2006,01,31,04,22,4.80
2006,01,31,04,23,6.40
2006,01,31,04,24,4.80
2006,01,31,04,25,4.80
2006,01,31,04,26,4.80
2006,01,31,04,27,6.40
2006,01,31,04,28,8.10
2006,01,31,04,29,4.80
2006,01,31,04,30,6.40
2006,01,31,04,31,8.10
2006,01,31,04,32,9.60
2006,01,31,04,33,8.10
2006,01,31,04,34,8.10
2006,01,31,04,35,6.40
2006,01,31,04,36,8.10
2006,01,31,04,37,8.10
2006,01,31,04,38,8.10
2006,01,31,04,39,8.10
2006,01,31,04,40,9.60
2006,01,31,04,41,9.60
2006,01,31,04,42,9.60
2006,01,31,04,43,11.30
2006,01,31,04,44,11.30
2006,01,31,04,45,9.60
2006,01,31,04,46,9.60
2006,01,31,04,47,11.30
2006,01,31,04,48,8.10
2006,01,31,04,49,17.70
2006,01,31,04,50,14.50
2006,01,31,04,51,11.30
2006,01,31,04,52,14.50
2006,01,31,04,53,14.50
2006,01,31,04,54,11.30
2006,01,31,04,55,11.30
2006,01,31,04,56,11.30
2006,01,31,04,57,16.10
2006,01,31,04,58,9.60
2006,01,31,04,59,11.30
2006,01,31,05,00,6.40
2006,01,31,05,01,9.60
2006,01,31,05,02,11.30
2006,01,31,05,03,8.10
2006,01,31,05,04,9.60
2006,01,31,05,05,14.50
2006,01,31,05,06,11.30
2006,01,31,05,07,12.90
2006,01,31,05,08,9.60
2006,01,31,05,09,11.30
2006,01,31,05,10,6.40
2006,01,31,05,11,6.40
2006,01,31,05,12,9.60
2006,01,31,05,13,9.60
2006,01,31,05,14,9.60
2006,01,31,05,15,9.60
2006,01,31,05,16,6.40
2006,01,31,05,17,6.40
2006,01,31,05,18,8.10
2006,01,31,05,19,8.10
2006,01,31,05,20,8.10
2006,01,31,05,21,11.30
2006,01,31,05,22,11.30
2006,01,31,05,23,9.60
2006,01,31,05,24,14.50
2006,01,31,05,25,14.50
2006,01,31,05,26,11.30
2006,01,31,05,27,8.10
2006,01,31,05,28,9.60
2006,01,31,05,29,9.60
2006,01,31,05,30,11.30
2006,01,31,05,31,14.50
2006,01,31,05,32,9.60
2006,01,31,05,33,9.60
2006,01,31,05,34,9.60
2006,01,31,05,35,12.90
2006,01,31,05,36,9.60
2006,01,31,05,37,6.40
2006,01,31,05,38,9.60
2006,01,31,05,39,9.60
2006,01,31,05,40,11.30
2006,01,31,05,41,8.10
2006,01,31,05,42,8.10
2006,01,31,05,43,17.70
2006,01,31,05,44,16.10
2006,01,31,05,45,16.10
2006,01,31,05,46,11.30
2006,01,31,05,47,16.10
2006,01,31,05,48,14.50
2006,01,31,05,49,9.60
2006,01,31,05,50,9.60
2006,01,31,05,51,14.50
2006,01,31,05,52,11.30
2006,01,31,05,53,8.10
2006,01,31,05,54,8.10
2006,01,31,05,55,8.10
2006,01,31,05,56,9.60
2006,01,31,05,57,11.30
2006,01,31,05,58,9.60
2006,01,31,05,59,9.60
2006,01,31,06,00,8.10
2006,01,31,06,01,9.60
2006,01,31,06,02,11.30
2006,01,31,06,03,11.30
2006,01,31,06,04,9.60
2006,01,31,06,05,14.50
2006,01,31,06,06,9.60
2006,01,31,06,07,6.40
2006,01,31,06,08,8.10
2006,01,31,06,09,8.10
2006,01,31,06,10,4.80
2006,01,31,06,11,4.80
2006,01,31,06,12,6.40
2006,01,31,06,13,4.80
2006,01,31,06,14,4.80
2006,01,31,06,15,4.80
2006,01,31,06,16,6.40
2006,01,31,06,17,4.80
2006,01,31,06,18,4.80
2006,01,31,06,19,6.40
2006,01,31,06,20,6.40
2006,01,31,06,21,4.80
2006,01,31,06,22,4.80
2006,01,31,06,23,3.20
2006,01,31,06,24,3.20
2006,01,31,06,25,4.80
2006,01,31,06,26,3.20
2006,01,31,06,27,4.80
2006,01,31,06,28,3.20
2006,01,31,06,29,3.20
2006,01,31,06,30,3.20
2006,01,31,06,31,3.20
2006,01,31,06,32,3.20
2006,01,31,06,33,4.80
2006,01,31,06,34,4.80
2006,01,31,06,35,4.80
2006,01,31,06,36,8.10
2006,01,31,06,37,4.80
2006,01,31,06,38,8.10
2006,01,31,06,39,9.60
2006,01,31,06,40,8.10
2006,01,31,06,41,6.40
2006,01,31,06,42,4.80
2006,01,31,06,43,11.30
2006,01,31,06,44,11.30
2006,01,31,06,45,11.30
2006,01,31,06,46,9.60
2006,01,31,06,47,9.60
2006,01,31,06,48,9.60
2006,01,31,06,49,11.30
2006,01,31,06,50,9.60
2006,01,31,06,51,11.30
2006,01,31,06,52,8.10
2006,01,31,06,53,11.30
2006,01,31,06,54,11.30
2006,01,31,06,55,9.60
2006,01,31,06,56,14.50
2006,01,31,06,57,11.30
2006,01,31,06,58,8.10
2006,01,31,06,59,9.60
2006,01,31,07,00,8.10
2006,01,31,07,01,8.10
2006,01,31,07,02,9.60
2006,01,31,07,03,9.60
2006,01,31,07,04,8.10
2006,01,31,07,05,9.60
2006,01,31,07,06,9.60
2006,01,31,07,07,8.10
2006,01,31,07,08,9.60
2006,01,31,07,09,9.60
2006,01,31,07,10,9.60
2006,01,31,07,11,8.10
2006,01,31,07,12,8.10
2006,01,31,07,13,6.40
2006,01,31,07,14,6.40
2006,01,31,07,15,6.40
2006,01,31,07,16,8.10
2006,01,31,07,17,9.60
2006,01,31,07,18,19.30
2006,01,31,07,19,8.10
2006,01,31,07,20,8.10
2006,01,31,07,21,9.60
2006,01,31,07,22,8.10
2006,01,31,07,23,4.80
2006,01,31,07,24,4.80
2006,01,31,07,25,4.80
2006,01,31,07,26,9.60
2006,01,31,07,27,6.40
2006,01,31,07,28,11.30
2006,01,31,07,29,8.10
2006,01,31,07,30,9.60
2006,01,31,07,31,6.40
2006,01,31,07,32,8.10
2006,01,31,07,33,9.60
2006,01,31,07,34,20.90
2006,01,31,07,35,20.90
2006,01,31,07,36,16.10
2006,01,31,07,37,14.50
2006,01,31,07,38,9.60
2006,01,31,07,39,9.60
2006,01,31,07,40,16.10
2006,01,31,07,41,14.50
2006,01,31,07,42,16.10
2006,01,31,07,43,9.60
2006,01,31,07,44,16.10
2006,01,31,07,45,16.10
2006,01,31,07,46,16.10
2006,01,31,07,47,14.50
2006,01,31,07,48,17.70
2006,01,31,07,49,19.30
2006,01,31,07,50,11.30
2006,01,31,07,51,17.70
2006,01,31,07,52,20.90
2006,01,31,07,53,16.10
2006,01,31,07,54,16.10
2006,01,31,07,55,16.10
2006,01,31,07,56,16.10
2006,01,31,07,57,14.50
2006,01,31,07,58,14.50
2006,01,31,07,59,19.30
2006,01,31,08,00,19.30
2006,01,31,08,01,19.30
2006,01,31,08,02,24.20
2006,01,31,08,03,22.50
2006,01,31,08,04,19.30
2006,01,31,08,05,20.90
2006,01,31,08,06,22.50
2006,01,31,08,07,22.50
2006,01,31,08,08,20.90
2006,01,31,08,09,30.60
2006,01,31,08,10,24.20
2006,01,31,08,11,25.70
2006,01,31,08,12,20.90
2006,01,31,08,13,22.50
2006,01,31,08,14,22.50
2006,01,31,08,15,20.90
2006,01,31,08,16,22.50
2006,01,31,08,17,20.90
2006,01,31,08,18,20.90
2006,01,31,08,19,19.30
2006,01,31,08,20,16.10
2006,01,31,08,21,19.30
2006,01,31,08,22,20.90
2006,01,31,08,23,24.20
2006,01,31,08,24,24.20
2006,01,31,08,25,22.50
2006,01,31,08,26,27.40
2006,01,31,08,27,24.20
2006,01,31,08,28,19.30
2006,01,31,08,29,22.50
2006,01,31,08,30,19.30
2006,01,31,08,31,19.30
2006,01,31,08,32,29.00
2006,01,31,08,33,20.90
2006,01,31,08,34,22.50
2006,01,31,08,35,14.50
2006,01,31,08,36,14.50
2006,01,31,08,37,17.70
2006,01,31,08,38,17.70
2006,01,31,08,39,19.30
2006,01,31,08,40,16.10
2006,01,31,08,41,17.70
2006,01,31,08,42,14.50
2006,01,31,08,43,12.90
2006,01,31,08,44,14.50
2006,01,31,08,45,14.50
2006,01,31,08,46,9.60
2006,01,31,08,47,16.10
2006,01,31,08,48,17.70
2006,01,31,08,49,17.70
2006,01,31,08,50,17.70
2006,01,31,08,51,17.70
2006,01,31,08,52,11.30
2006,01,31,08,53,9.60
2006,01,31,08,54,11.30
2006,01,31,08,55,9.60
2006,01,31,08,56,19.30
2006,01,31,08,57,17.70
2006,01,31,08,58,16.10
2006,01,31,08,59,17.70
2006,01,31,09,00,17.70
2006,01,31,09,01,16.10
2006,01,31,09,02,11.30
2006,01,31,09,03,22.50
2006,01,31,09,04,17.70
2006,01,31,09,05,11.30
2006,01,31,09,06,16.10
2006,01,31,09,07,11.30
2006,01,31,09,08,11.30
2006,01,31,09,09,11.30
2006,01,31,09,10,9.60
2006,01,31,09,11,14.50
2006,01,31,09,12,8.10
2006,01,31,09,13,16.10
2006,01,31,09,14,14.50
2006,01,31,09,15,14.50
2006,01,31,09,16,11.30
2006,01,31,09,17,11.30
2006,01,31,09,18,17.70
2006,01,31,09,19,9.60
2006,01,31,09,20,8.10
2006,01,31,09,21,8.10
2006,01,31,09,22,8.10
2006,01,31,09,23,4.80
2006,01,31,09,24,6.40
2006,01,31,09,25,3.20
2006,01,31,09,26,4.80
2006,01,31,09,27,6.40
2006,01,31,09,28,9.60
2006,01,31,09,29,6.40
2006,01,31,09,30,9.60
2006,01,31,09,31,9.60
2006,01,31,09,32,12.90
2006,01,31,09,33,9.60
2006,01,31,09,34,9.60
2006,01,31,09,35,8.10
2006,01,31,09,36,11.30
2006,01,31,09,37,12.90
2006,01,31,09,38,9.60
2006,01,31,09,39,17.70
2006,01,31,09,40,11.30
2006,01,31,09,41,9.60
2006,01,31,09,42,8.10
2006,01,31,09,43,16.10
2006,01,31,09,44,17.70
2006,01,31,09,45,14.50
2006,01,31,09,46,14.50
2006,01,31,09,47,12.90
2006,01,31,09,48,9.60
2006,01,31,09,49,22.50
2006,01,31,09,50,14.50
2006,01,31,09,51,19.30
2006,01,31,09,52,29.00
2006,01,31,09,53,19.30
2006,01,31,09,54,20.90
2006,01,31,09,55,24.20
2006,01,31,09,56,19.30
2006,01,31,09,57,27.40
2006,01,31,09,58,24.20
2006,01,31,09,59,24.20
2006,01,31,10,00,25.70
2006,01,31,10,01,22.50
2006,01,31,10,02,24.20
2006,01,31,10,03,22.50
2006,01,31,10,04,24.20
2006,01,31,10,05,17.70
2006,01,31,10,06,24.20
2006,01,31,10,07,35.40
2006,01,31,10,08,25.70
2006,01,31,10,09,25.70
2006,01,31,10,10,22.50
2006,01,31,10,11,20.90
2006,01,31,10,12,25.70
2006,01,31,10,13,27.40
2006,01,31,10,14,22.50
2006,01,31,10,15,25.70
2006,01,31,10,16,25.70
2006,01,31,10,17,25.70
2006,01,31,10,18,27.40
2006,01,31,10,19,30.60
2006,01,31,10,20,27.40
2006,01,31,10,21,22.50
2006,01,31,10,22,22.50
2006,01,31,10,23,22.50
2006,01,31,10,24,16.10
2006,01,31,10,25,19.30
2006,01,31,10,26,19.30
2006,01,31,10,27,17.70
2006,01,31,10,28,16.10
2006,01,31,10,29,9.60
2006,01,31,10,30,9.60
2006,01,31,10,31,8.10
2006,01,31,10,32,8.10
2006,01,31,10,33,8.10
2006,01,31,10,34,6.40
2006,01,31,10,35,9.60
2006,01,31,10,36,8.10
2006,01,31,10,37,6.40
2006,01,31,10,38,11.30
2006,01,31,10,39,9.60
2006,01,31,10,40,6.40
2006,01,31,10,41,6.40
2006,01,31,10,42,8.10
2006,01,31,10,43,14.50
2006,01,31,10,44,16.10
2006,01,31,10,45,17.70
2006,01,31,10,46,16.10
2006,01,31,10,47,9.60
2006,01,31,10,48,9.60
2006,01,31,10,49,6.40
2006,01,31,10,50,8.10
2006,01,31,10,51,9.60
2006,01,31,10,52,9.60
2006,01,31,10,53,9.60
2006,01,31,10,54,9.60
2006,01,31,10,55,9.60
2006,01,31,10,56,8.10
2006,01,31,10,57,14.50
2006,01,31,10,58,3.20
2006,01,31,10,59,4.80
2006,01,31,11,00,8.10
2006,01,31,11,01,14.50
2006,01,31,11,02,19.30
2006,01,31,11,03,19.30
2006,01,31,11,04,9.60
2006,01,31,11,05,9.60
2006,01,31,11,06,9.60
2006,01,31,11,07,9.60
2006,01,31,11,08,19.30
2006,01,31,11,09,14.50
2006,01,31,11,10,14.50
2006,01,31,11,11,6.40
2006,01,31,11,12,6.40
2006,01,31,11,13,9.60
2006,01,31,11,14,14.50
2006,01,31,11,15,8.10
2006,01,31,11,16,19.30
2006,01,31,11,17,16.10
2006,01,31,11,18,8.10
2006,01,31,11,19,3.20
2006,01,31,11,20,3.20
2006,01,31,11,21,1.60
2006,01,31,11,22,9.60
2006,01,31,11,23,9.60
2006,01,31,11,24,8.10
2006,01,31,11,25,8.10
2006,01,31,11,26,8.10
2006,01,31,11,27,6.40
2006,01,31,11,28,6.40
2006,01,31,11,29,4.80
2006,01,31,11,30,9.60
2006,01,31,11,31,9.60
2006,01,31,11,32,4.80
2006,01,31,11,33,4.80
2006,01,31,11,34,4.80
2006,01,31,11,35,3.20
2006,01,31,11,36,6.40
2006,01,31,11,37,16.10
2006,01,31,11,38,14.50
2006,01,31,11,39,16.10
2006,01,31,11,40,9.60
2006,01,31,11,41,14.50
2006,01,31,11,42,12.90
2006,01,31,11,43,14.50
2006,01,31,11,44,29.00
2006,01,31,11,45,24.20
2006,01,31,11,46,16.10
2006,01,31,11,47,16.10
2006,01,31,11,48,12.90
2006,01,31,11,49,12.90
2006,01,31,11,50,12.90
2006,01,31,11,51,12.90
2006,01,31,11,52,12.90
2006,01,31,11,53,22.50
2006,01,31,11,54,19.30
2006,01,31,11,55,22.50
2006,01,31,11,56,29.00
2006,01,31,11,57,32.20
2006,01,31,11,58,24.20
2006,01,31,11,59,35.40
2006,01,31,12,00,30.60
2006,01,31,12,01,29.00
2006,01,31,12,02,24.20
2006,01,31,12,03,33.80
2006,01,31,12,04,32.20
2006,01,31,12,05,25.70
2006,01,31,12,06,33.80
2006,01,31,12,07,32.20
2006,01,31,12,08,33.80
2006,01,31,12,09,24.20
2006,01,31,12,10,27.40
2006,01,31,12,11,35.40
2006,01,31,12,12,35.40
2006,01,31,12,13,32.20
2006,01,31,12,14,33.80
2006,01,31,12,15,30.60
2006,01,31,12,16,29.00
2006,01,31,12,17,30.60
2006,01,31,12,18,25.70
2006,01,31,12,19,29.00
2006,01,31,12,20,30.60
2006,01,31,12,21,22.50
2006,01,31,12,22,19.30
2006,01,31,12,23,27.40
2006,01,31,12,24,25.70
2006,01,31,12,25,33.80
2006,01,31,12,26,37.00
2006,01,31,12,27,29.00
2006,01,31,12,28,33.80
2006,01,31,12,29,33.80
2006,01,31,12,30,29.00
2006,01,31,12,31,25.70
2006,01,31,12,32,25.70
2006,01,31,12,33,30.60
2006,01,31,12,34,30.60
2006,01,31,12,35,32.20
2006,01,31,12,36,30.60
2006,01,31,12,37,32.20
2006,01,31,12,38,30.60
2006,01,31,12,39,35.40
2006,01,31,12,40,38.60
2006,01,31,12,41,40.20
2006,01,31,12,42,41.80
2006,01,31,12,43,35.40
2006,01,31,12,44,16.10
2006,01,31,12,45,32.20
2006,01,31,12,46,40.20
2006,01,31,12,47,38.60
2006,01,31,12,48,33.80
2006,01,31,12,49,40.20
2006,01,31,12,50,40.20
2006,01,31,12,51,35.40
2006,01,31,12,52,49.90
2006,01,31,12,53,48.30
2006,01,31,12,54,40.20
2006,01,31,12,55,37.00
2006,01,31,12,56,37.00
2006,01,31,12,57,48.30
2006,01,31,12,58,37.00
2006,01,31,12,59,30.60
2006,01,31,13,00,40.20
2006,01,31,13,01,46.70
2006,01,31,13,02,45.10
2006,01,31,13,03,43.50
2006,01,31,13,04,38.60
2006,01,31,13,05,43.50
2006,01,31,13,06,43.50
2006,01,31,13,07,37.00
2006,01,31,13,08,43.50
2006,01,31,13,09,40.20
2006,01,31,13,10,37.00
2006,01,31,13,11,37.00
2006,01,31,13,12,33.80
2006,01,31,13,13,41.80
2006,01,31,13,14,24.20
2006,01,31,13,15,35.40
2006,01,31,13,16,38.60
2006,01,31,13,17,35.40
2006,01,31,13,18,33.80
2006,01,31,13,19,35.40
2006,01,31,13,20,25.70
2006,01,31,13,21,30.60
2006,01,31,13,22,35.40
2006,01,31,13,23,25.70
2006,01,31,13,24,33.80
2006,01,31,13,25,45.10
2006,01,31,13,26,43.50
2006,01,31,13,27,37.00
2006,01,31,13,28,30.60
2006,01,31,13,29,33.80
2006,01,31,13,30,53.10
2006,01,31,13,31,29.00
2006,01,31,13,32,30.60
2006,01,31,13,33,40.20
2006,01,31,13,34,38.60
2006,01,31,13,35,48.30
2006,01,31,13,36,45.10
2006,01,31,13,37,41.80
2006,01,31,13,38,48.30
2006,01,31,13,39,37.00
2006,01,31,13,40,43.50
2006,01,31,13,41,41.80
2006,01,31,13,42,48.30
2006,01,31,13,43,43.50
2006,01,31,13,44,35.40
2006,01,31,13,45,35.40
2006,01,31,13,46,35.40
2006,01,31,13,47,40.20
2006,01,31,13,48,30.60
2006,01,31,13,49,33.80
2006,01,31,13,50,37.00
2006,01,31,13,51,38.60
2006,01,31,13,52,38.60
2006,01,31,13,53,27.40
2006,01,31,13,54,35.40
2006,01,31,13,55,38.60
2006,01,31,13,56,45.10
2006,01,31,13,57,48.30
2006,01,31,13,58,48.30
2006,01,31,13,59,48.30
2006,01,31,14,00,48.30
2006,01,31,14,01,33.80
2006,01,31,14,02,29.00
2006,01,31,14,03,19.30
2006,01,31,14,04,59.50
2006,01,31,14,05,35.40
2006,01,31,14,06,41.80
2006,01,31,14,07,37.00
2006,01,31,14,08,49.90
2006,01,31,14,09,59.50
2006,01,31,14,10,48.30
2006,01,31,14,11,45.10
2006,01,31,14,12,41.80
2006,01,31,14,13,43.50
2006,01,31,14,14,67.60
2006,01,31,14,15,48.30
2006,01,31,14,16,43.50
2006,01,31,14,17,53.10
2006,01,31,14,18,45.10
2006,01,31,14,19,40.20
2006,01,31,14,20,32.20
2006,01,31,14,21,66.00
2006,01,31,14,22,59.50
2006,01,31,14,23,64.40
2006,01,31,14,24,66.00
2006,01,31,14,25,43.50
2006,01,31,14,26,46.70
2006,01,31,14,27,53.10
2006,01,31,14,28,51.50
2006,01,31,14,29,37.00
2006,01,31,14,30,41.80
2006,01,31,14,31,49.90
2006,01,31,14,32,46.70
2006,01,31,14,33,43.50
2006,01,31,14,34,49.90
2006,01,31,14,35,54.70
2006,01,31,14,36,40.20
2006,01,31,14,37,53.10
2006,01,31,14,38,33.80
2006,01,31,14,39,41.80
2006,01,31,14,40,53.10
2006,01,31,14,41,51.50
2006,01,31,14,42,46.70
2006,01,31,14,43,43.50
2006,01,31,14,44,43.50
2006,01,31,14,45,49.90
2006,01,31,14,46,61.20
2006,01,31,14,47,46.70
2006,01,31,14,48,67.60
2006,01,31,14,49,46.70
2006,01,31,14,50,53.10
2006,01,31,14,51,40.20
2006,01,31,14,52,51.50
2006,01,31,14,53,64.40
2006,01,31,14,54,38.60
2006,01,31,14,55,56.30
2006,01,31,14,56,56.30
2006,01,31,14,57,59.50
2006,01,31,14,58,48.30
2006,01,31,14,59,51.50
2006,01,31,15,00,43.50
2006,01,31,15,01,45.10
2006,01,31,15,02,45.10
2006,01,31,15,03,59.50
2006,01,31,15,04,57.90
2006,01,31,15,05,51.50
2006,01,31,15,06,48.30
2006,01,31,15,07,46.70
2006,01,31,15,08,53.10
2006,01,31,15,09,62.70
2006,01,31,15,10,54.70
2006,01,31,15,11,45.10
2006,01,31,15,12,48.30
2006,01,31,15,13,57.90
2006,01,31,15,14,41.80
2006,01,31,15,15,49.90
2006,01,31,15,16,53.10
2006,01,31,15,17,46.70
2006,01,31,15,18,41.80
2006,01,31,15,19,57.90
2006,01,31,15,20,62.70
2006,01,31,15,21,61.20
2006,01,31,15,22,61.20
2006,01,31,15,23,53.10
2006,01,31,15,24,40.20
2006,01,31,15,25,53.10
2006,01,31,15,26,46.70
2006,01,31,15,27,43.50
2006,01,31,15,28,64.40
2006,01,31,15,29,62.70
2006,01,31,15,30,54.70
2006,01,31,15,31,40.20
2006,01,31,15,32,57.90
2006,01,31,15,33,53.10
2006,01,31,15,34,57.90
2006,01,31,15,35,61.20
2006,01,31,15,36,54.70
2006,01,31,15,37,53.10
2006,01,31,15,38,48.30
2006,01,31,15,39,51.50
2006,01,31,15,40,45.10
2006,01,31,15,41,38.60
2006,01,31,15,42,27.40
2006,01,31,15,43,40.20
2006,01,31,15,44,43.50
2006,01,31,15,45,64.40
2006,01,31,15,46,37.00
2006,01,31,15,47,62.70
2006,01,31,15,48,66.00
2006,01,31,15,49,49.90
2006,01,31,15,50,43.50
2006,01,31,15,51,43.50
2006,01,31,15,52,57.90
2006,01,31,15,53,30.60
2006,01,31,15,54,35.40
2006,01,31,15,55,64.40
2006,01,31,15,56,57.90
2006,01,31,15,57,43.50
2006,01,31,15,58,59.50
2006,01,31,15,59,66.00
2006,01,31,16,00,49.90
2006,01,31,16,01,46.70
2006,01,31,16,02,53.10
2006,01,31,16,03,49.90
2006,01,31,16,04,49.90
2006,01,31,16,05,56.30
2006,01,31,16,06,56.30
2006,01,31,16,07,69.20
2006,01,31,16,08,37.00
2006,01,31,16,09,61.20
2006,01,31,16,10,62.70
2006,01,31,16,11,53.10
2006,01,31,16,12,57.90
2006,01,31,16,13,78.80
2006,01,31,16,14,48.30
2006,01,31,16,15,41.80
2006,01,31,16,16,56.30
2006,01,31,16,17,49.90
2006,01,31,16,18,43.50
2006,01,31,16,19,51.50
2006,01,31,16,20,54.70
2006,01,31,16,21,35.40
2006,01,31,16,22,59.50
2006,01,31,16,23,48.30
2006,01,31,16,24,64.40
2006,01,31,16,25,74.00
2006,01,31,16,26,67.60
2006,01,31,16,27,62.70
2006,01,31,16,28,40.20
2006,01,31,16,29,53.10
2006,01,31,16,30,69.20
2006,01,31,16,31,38.60
2006,01,31,16,32,53.10
2006,01,31,16,33,64.40
2006,01,31,16,34,51.50
2006,01,31,16,35,78.80
2006,01,31,16,36,61.20
2006,01,31,16,37,51.50
2006,01,31,16,38,57.90
2006,01,31,16,39,57.90
2006,01,31,16,40,40.20
2006,01,31,16,41,51.50
2006,01,31,16,42,35.40
2006,01,31,16,43,53.10
2006,01,31,16,44,53.10
2006,01,31,16,45,57.90
2006,01,31,16,46,46.70
2006,01,31,16,47,53.10
2006,01,31,16,48,53.10
2006,01,31,16,49,51.50
2006,01,31,16,50,45.10
2006,01,31,16,51,56.30
2006,01,31,16,52,70.80
2006,01,31,16,53,49.90
2006,01,31,16,54,49.90
2006,01,31,16,55,56.30
2006,01,31,16,56,45.10
2006,01,31,16,57,38.60
2006,01,31,16,58,74.00
2006,01,31,16,59,66.00
2006,01,31,17,00,69.20
2006,01,31,17,01,57.90
2006,01,31,17,02,45.10
2006,01,31,17,03,32.20
2006,01,31,17,04,62.70
2006,01,31,17,05,33.80
2006,01,31,17,06,43.50
2006,01,31,17,07,40.20
2006,01,31,17,08,40.20
2006,01,31,17,09,48.30
2006,01,31,17,10,61.20
2006,01,31,17,11,64.40
2006,01,31,17,12,41.80
2006,01,31,17,13,40.20
2006,01,31,17,14,40.20
2006,01,31,17,15,33.80
2006,01,31,17,16,41.80
2006,01,31,17,17,49.90
2006,01,31,17,18,59.50
2006,01,31,17,19,66.00
2006,01,31,17,20,66.00
2006,01,31,17,21,56.30
2006,01,31,17,22,62.70
2006,01,31,17,23,62.70
2006,01,31,17,24,53.10
2006,01,31,17,25,62.70
2006,01,31,17,26,37.00
2006,01,31,17,27,51.50
2006,01,31,17,28,51.50
2006,01,31,17,29,54.70
2006,01,31,17,30,53.10
2006,01,31,17,31,48.30
2006,01,31,17,32,57.90
2006,01,31,17,33,59.50
2006,01,31,17,34,59.50
2006,01,31,17,35,70.80
2006,01,31,17,36,57.90